User: anonymous   Login
Location: Hains Lake
(37.8540°N, 99.8578°W)
Time: 14:31:17
(UTC+00:00)
Language:

Explorer 11/Cluster Stage 4 - Orbit

View from above orbital plane
View from above orbital plane
View from above satellite
View from above satellite

Ground track
Ground track

The orbit data is extracted from the following two-line orbital elements,

1 00107U 61013A   21108.85009928  .00000428  00000-0  39003-4 0  9995
2 00107  28.7877 256.4128 0545966  12.9080 348.4876 14.09176104  9341
Epoch (UTC): 18 April 2021 20:24:08
Eccentricity: 0.0545966
inclination: 28.7877°
perigee height: 467 km
apogee height: 1257 km
right ascension of ascending node: 256.4128°
argument of perigee: 12.9080°
revolutions per day: 14.09176104
mean anomaly at epoch: 348.4876°
orbit number at epoch: 934

The dashed part of the orbit path shows where the satellite is in the earth's shadow,  

DLR